This demonstration page uses our WeatherBlox Daily Observations layout. Learn more.

Left ArrowRight Arrow

41.55636, -103.73856

Hourly Observations for June 26, 2022

Temp ( °F °C ) Dew Point ( °F °C ) Humidity (%) Winds ( mph kmh ) Pressure ( in mb ) Visibility ( mi km ) Precip ( " mm )
12:58 am 00:58 Clear 52 11.1 35 1.9 53 53 E 9 15 30.35 1028 10 16 0.00 0.00
1:58 am 01:58 Mostly Cloudy 52 11.2 36 2.2 54 54 ESE 9 15 30.36 1028 10 16 0.00 0.00
2:58 am 02:58 Cloudy 54 12 36 2.2 51 51 ENE 3 6 30.35 1028 10 16 0.00 0.00
3:58 am 03:58 Cloudy 54 12.3 36 2.2 50 50 ESE 6 9 30.34 1027 10 16 0.00 0.00
4:58 am 04:58 Cloudy 55 12.5 35 1.5 47 47 SE 6 9 30.33 1027 10 16 0.00 0.00
5:58 am 05:58 Cloudy 54 12 37 3 54 54 N 3 6 30.35 1028 10 16 0.00 0.00
6:58 am 06:58 Cloudy 56 13.3 35 1.9 46 46 Calm 30.36 1028 10 16 0.00 0.00
7:58 am 07:58 Cloudy 58 14.6 33 0.8 39 39 SE 8 13 30.39 1029 10 16 0.00 0.00
8:58 am 08:58 Cloudy 60 15.7 33 0.7 36 36 ESE 10 17 30.39 1029 10 16 0.00 0.00
9:58 am 09:58 Cloudy 61 15.9 33 0.8 36 36 SSE 14 22 30.41 1030 10 16 0.00 0.00
10:58 am 10:58 Cloudy 60 15.4 33 0.8 37 37 SE 10 17 30.42 1030 10 16 0.00 0.00
11:58 am 11:58 Cloudy 61 16.2 33 0.7 35 35 SE 12 19 30.40 1029 10 16 0.00 0.00
12:58 pm 12:58 Cloudy 63 17.4 32 0.1 31 31 SE 14 22 30.37 1029 10 16 0.00 0.00
1:58 pm 13:58 Cloudy 65 18.1 32 0.2 30 30 SSE 14 22 30.35 1028 10 16 0.00 0.00
2:58 pm 14:58 Mostly Cloudy 69 20.6 35 1.4 28 28 SE 10 17 30.31 1026 10 16 0.00 0.00
3:58 pm 15:58 Mostly Sunny 69 20.7 36 2 29 29 SSE 13 20 30.29 1026 10 16 0.00 0.00
4:58 pm 16:58 Sunny 71 21.4 36 2.1 28 28 ESE 14 22 30.26 1025 10 16 0.00 0.00
5:58 pm 17:58 Sunny 72 22.3 36 2.4 27 27 SSE 14 22 30.24 1024 10 16 0.00 0.00
6:58 pm 18:58 Mostly Cloudy 70 21.3 37 2.5 29 29 SE 15 24 30.24 1024 10 16 0.00 0.00
7:58 pm 19:58 Sunny 68 19.8 38 3.1 33 33 SE 15 24 30.24 1024 10 16 0.00 0.00
8:58 pm 20:58 Clear 64 17.5 38 3.4 39 39 ESE 12 19 30.24 1024 10 16 0.00 0.00
9:58 pm 21:58 Clear 61 15.9 39 4 45 45 ESE 13 20 30.25 1025 10 16 0.00 0.00
10:58 pm 22:58 Clear 61 16.2 38 3.6 43 43 SE 15 24 30.25 1025 10 16 0.00 0.00
11:58 pm 23:58 Clear 61 16 37 2.7 41 41 SE 20 31 30.24 1024 10 16 0.00 0.00

Powered by AerisWeather